Regional Weather Roundup
Issued by NWS New Orleans/Baton Rouge, LA

Home | Current Version | Previous Version | Text Only | Print | Product List | Glossary On
Versions: 1 2 3 4 5 6 7 8 9 10 11 12 13 14 15 16 17 18 19 20 21 22 23 24 25 26 27
000
ASUS44 KLIX 230213
RWRLIX
NEW ORLEANS REGIONAL WEATHER ROUNDUP
NATIONAL WEATHER SERVICE NEW ORLEANS LA
800 PM CST WED NOV 22 2017

NOTE: "FAIR" INDICATES FEW OR NO CLOUDS BELOW 12,000 FEET WITH NO
      SIGNIFICANT WEATHER AND/OR OBSTRUCTIONS TO VISIBILITY.
      SKY/WX - SKY CONDITION AND SIGNIFICANT WEATHER.
      TMP - AIR TEMPERATURE.     DP    - DEWPOINT TEMPERATURE.
      RH  - RELATIVE HUMIDITY.   PRES  - PRESSURE.
      HI  - HEAT INDEX.          WCI   - WIND CHILL INDEX.

*  THESE STATIONS ARE NOT NWS OR FAA STATIONS AND ARE NOT UNDER
   NWS QUALITY CONTROL.

LAZ038-040-048-061>063-065>067-069-230300-
SOUTHEAST LOUISIANA

CITY           SKY/WX    TMP DP  RH WIND       PRES   REMARKS
N.O. INTL ARPT PTCLDY    60  47  61 N10G18    30.13R
N.O. LAKEFRONT CLEAR     61  47  59 N20       30.13R
N.O. DOWNTOWN*   N/A     61  44  53 N10       30.13R
RESERVE*         N/A     56  43  61 N6        30.15R
SLIDELL        CLEAR     52  43  71 N5        30.12R
BATON ROUGE    CLEAR     51  37  58 N8        30.18R
BOOTHVILLE     CLEAR     63  48  58 N10G23    30.09R
BELLE CHASSE   PTCLDY    58  47  66 N6        30.12R
BOGALUSA*      NOT AVBL
GALLIANO*      CLEAR     54  47  78 N6        30.11S
NEW ROADS*       N/A     49  37  63 N7        30.20R
GONZALES*        N/A     55  41  60 N12       30.15R
HAMMOND*       CLEAR     50  41  71 N10       30.15R
HOUMA*         CLEAR     55  46  70 N8        30.13R
PORT FOURCHON* NOT AVBL

$$

MSZ070-080>082-230300-
SOUTHERN MISSISSIPPI

CITY           SKY/WX    TMP DP  RH WIND       PRES   REMARKS
MCCOMB         CLEAR     49  34  56 N10       30.17S
GULFPORT       CLEAR     57  42  57 N8        30.10R
BILOXI         CLEAR     56  43  62 N8        30.10R
PASCAGOULA     PTCLDY    52  41  66 N6        30.10R
STENNIS ARPT*  CLEAR    N/A N/A N/A N7        30.12R

$$

COASTAL OBSERVATIONS
LAKE AND NEARSHORE STATIONS

STATION/POSITION TIME  TEMP    WIND        PRES    WAVE
                       AIR SEA DIR/SP/G            HT/PER
                 (UTC) (F)     (DEG/KT/KT) (MB)    (FT/S)
PASCAGOULA       0148   56      20/  8/ 11 1018.8
WAVELAND YACHT   0148   57 61  360/ 12/ 15 1019.5
GRAND ISLE       0148   62 64   30/ 13/ 19 1019.1
SOUTHWEST PASS   0148   62 62   20/ 19/ 23 1018.5
NEW CANAL        0148   61 63  360/ 17/ 20 1019.9
SHELL BEACH      0148   61 64   10/ 20/ 22 1019.4

OFFSHORE STATIONS

STATION/POSITION TIME  TEMP    WIND        PRES    WAVE
                       AIR SEA DIR/SP/G            HT/PER
                 (UTC) (F)     (DEG/KT/KT) (MB)    (FT/S)
64 S DAUPHIN ISL 0150   67      20/ 23/ 29 1016.9    6/ 6

$$





USA.gov is the U.S. government's official web portal to all federal, state and local government web resources and services.